Tracking 19562 objects as of 21-Mar-2019
HD Live streaming from Space Station
objects crossing your sky now

COSMOS 1091

Track COSMOS 1091 now!
10-day predictions
COSMOS 1091 is classified as:


NORAD ID: 11320
Int'l Code: 1979-028A
Perigee: 967.9 km
Apogee: 1,012.2 km
Inclination: 82.9 °
Period: 104.8 minutes
Semi major axis: 7361 km
RCS: 2.1761 m2 (large)
Launch date: April 7, 1979
Source: Commonwealth of Independent States (former USSR) (CIS)
Launch site: PLESETSK MISSILE AND SPACE COMPLEX (PKMTR)
aabbcc
Your satellite tracking list
Your tracking list is empty




NASA's NSSDC Master Catalog

Two Line Element Set (TLE):
1 11320U 79028A   19079.58157935  .00000029  00000-0  14289-4 0  9991
2 11320  82.9209 297.6424 0030070 339.8304  48.9852 13.74659498  3895
Source of the keplerian elements: AFSPC